Location: Newark
(0.5300°S, 127.4800°E)
Time: 09:19:00
(UTC+00:00)

Transit 2A - All Passes

Search period start: 24 September 2019 00:00
Search period end: 04 October 2019 00:00
Orbit: 599 x 960 km, 66.7° (Epoch: 23 September)

Date Brightness Start Highest point End Pass type
(mag) Time Alt. Az. Time Alt. Az. Time Alt. Az.
24 Sep - 03:40:26 10° NNW 03:44:45 81° WSW 03:49:22 10° SSE daylight
24 Sep - 14:31:39 10° SSE 14:36:42 25° ESE 14:41:36 10° ENE night (unlit)
24 Sep - 16:14:21 10° SW 16:19:43 30° WNW 16:24:53 10° NNW night (unlit)
25 Sep - 03:06:29 10° N 03:10:42 53° ENE 03:15:11 10° SSE daylight
25 Sep - 13:58:59 10° SSE 14:02:34 16° ESE 14:06:04 10° ENE night (unlit)
25 Sep - 15:39:38 10° SW 15:45:41 47° WNW 15:51:25 10° N night (unlit)
26 Sep - 02:32:56 10° N 02:36:41 28° ENE 02:40:35 10° SE daylight
26 Sep - 04:18:07 10° W 04:19:37 11° WSW 04:21:10 10° SW daylight
26 Sep - 15:05:17 10° SSW 15:11:37 76° WNW 15:17:37 10° NNE night (unlit)
27 Sep - 02:00:01 10° NNE 02:02:39 16° ENE 02:05:21 10° ESE daylight
27 Sep - 03:42:09 10° WNW 03:45:28 21° WSW 03:48:57 10° SSW daylight
27 Sep - 14:31:14 10° SSW 14:37:33 69° ESE 14:43:31 10° NNE night (unlit)
28 Sep - 03:07:19 10° NW 03:11:21 37° WSW 03:15:39 10° S daylight
28 Sep - 13:57:29 10° S 14:03:27 43° ESE 14:09:08 10° NE night (unlit)
28 Sep - 15:42:36 10° WSW 15:46:21 17° WNW 15:50:01 10° NNW night (unlit)
29 Sep - 02:32:56 10° NNW 02:37:16 71° WSW 02:41:54 10° SSE daylight
29 Sep - 13:24:04 10° SSE 13:29:20 27° ESE 13:34:23 10° NE night (unlit)
29 Sep - 15:07:10 10° SW 15:12:19 27° WNW 15:17:14 10° NNW night (unlit)
30 Sep - 01:58:55 10° N 02:03:12 61° ENE 02:07:47 10° SSE daylight
30 Sep - 12:51:12 10° SSE 12:55:10 17° ESE 12:59:01 10° ENE night (unlit)
30 Sep - 14:32:22 10° SW 14:38:16 43° WNW 14:43:52 10° N night (unlit)
01 Oct - 01:25:17 10° N 01:29:10 32° ENE 01:33:17 10° SE daylight
01 Oct - 03:11:41 10° WSW 03:12:10 10° WSW 03:12:39 10° WSW daylight
01 Oct - 13:57:57 10° SSW 14:04:13 69° WNW 14:10:08 10° NNE night (unlit)
02 Oct - 00:52:10 10° NNE 00:55:09 18° ENE 00:58:15 10° ESE daylight
02 Oct - 02:34:53 10° WNW 02:38:00 19° WSW 02:41:16 10° SSW daylight
02 Oct - 13:23:49 10° SSW 13:30:09 76° ESE 13:36:06 10° NNE night (unlit)
03 Oct - 01:59:55 10° NW 02:03:52 33° WSW 02:08:06 10° S daylight
03 Oct - 12:50:00 10° S 12:56:03 48° ESE 13:01:47 10° NE night (unlit)
03 Oct - 14:35:41 10° WSW 14:38:57 15° WNW 14:42:06 10° NW night (unlit)
